EN

Hourly Weather Brzestowa

Today, 9 May, Sunday

Time Temperature Precipitation Wind Pressure Humidity
00:00 +4°C° 0 mm 2 mps 746 mmHg 76%
01:00 +4°C° 0 mm 2 mps 746 mmHg 78%
02:00 +4°C° 0 mm 2 mps 746 mmHg 77%
03:00 +4°C° 0 mm 2 mps 745 mmHg 76%
04:00 +4°C° 0 mm 2 mps 745 mmHg 76%
05:00 +6°C° 0 mm 2 mps 745 mmHg 70%
06:00 +8°C° 0 mm 2 mps 745 mmHg 64%
07:00 +10°C° 0 mm 2 mps 745 mmHg 59%
08:00 +13°C° 0 mm 2 mps 745 mmHg 55%
09:00 +15°C° 0 mm 2 mps 745 mmHg 50%
10:00 +17°C° 0 mm 3 mps 744 mmHg 46%
11:00 +19°C° 0 mm 3 mps 744 mmHg 45%
12:00 +20°C° 0 mm 3 mps 744 mmHg 44%
13:00 +21°C° 0 mm 3 mps 744 mmHg 43%
14:00 +21°C° 0 mm 3 mps 744 mmHg 44%
15:00 +21°C° 0 mm 3 mps 743 mmHg 46%
16:00 +21°C° 0 mm 2 mps 743 mmHg 48%
17:00 +19°C° 0 mm 2 mps 743 mmHg 56%
18:00 +17°C° 0 mm 2 mps 743 mmHg 65%
19:00 +15°C° 0 mm 2 mps 743 mmHg 74%
20:00 +14°C° 0 mm 2 mps 743 mmHg 75%
21:00 +13°C° 0 mm 2 mps 743 mmHg 77%
22:00 +10°C° 0 mm 2 mps 743 mmHg 79%
23:00 +10°C° 0 mm 2 mps 743 mmHg 80%

Tomorrow, 10 May, Monday

Time Temperature Precipitation Wind Pressure Humidity
00:00 +9°C° 0 mm 2 mps 743 mmHg 80%
01:00 +9°C° 0 mm 2 mps 743 mmHg 80%
02:00 +8°C° 0 mm 2 mps 742 mmHg 79%
03:00 +8°C° 0 mm 2 mps 742 mmHg 78%
04:00 +8°C° 0 mm 2 mps 742 mmHg 78%
05:00 +10°C° 0 mm 2 mps 742 mmHg 72%
06:00 +13°C° 0 mm 2 mps 742 mmHg 67%
07:00 +15°C° 0 mm 2 mps 742 mmHg 61%
08:00 +17°C° 0 mm 2 mps 742 mmHg 55%
09:00 +20°C° 0 mm 2 mps 742 mmHg 50%
10:00 +22°C° 0 mm 3 mps 741 mmHg 44%
11:00 +24°C° 0 mm 3 mps 741 mmHg 42%
12:00 +25°C° 0 mm 3 mps 741 mmHg 39%
13:00 +26°C° 0 mm 3 mps 741 mmHg 37%
14:00 +26°C° 0 mm 3 mps 741 mmHg 41%
15:00 +26°C° 0 mm 3 mps 741 mmHg 44%
16:00 +26°C° 0 mm 3 mps 741 mmHg 48%
17:00 +24°C° 0 mm 2 mps 741 mmHg 55%
18:00 +21°C° 0 mm 1 mps 741 mmHg 63%
19:00 +19°C° 0 mm 1 mps 741 mmHg 70%
20:00 +18°C° 0 mm 1 mps 741 mmHg 73%
21:00 +16°C° 0 mm 1 mps 741 mmHg 75%
22:00 +15°C° 0 mm 1 mps 741 mmHg 78%
23:00 +14°C° 0 mm 1 mps 741 mmHg 79%

Day after tomorrow, 11 May, Tuesday

Time Temperature Precipitation Wind Pressure Humidity
00:00 +14°C° 0 mm 2 mps 741 mmHg 80%
01:00 +13°C° 0 mm 2 mps 741 mmHg 81%
02:00 +13°C° 0 mm 2 mps 740 mmHg 82%
03:00 +13°C° 0 mm 2 mps 740 mmHg 83%
04:00 +12°C° 0 mm 2 mps 740 mmHg 83%
05:00 +14°C° 0 mm 2 mps 739 mmHg 78%
06:00 +16°C° 0 mm 3 mps 739 mmHg 74%
07:00 +18°C° 0 mm 3 mps 739 mmHg 69%
08:00 +20°C° 0 mm 3 mps 739 mmHg 63%
09:00 +22°C° 0 mm 3 mps 739 mmHg 57%
10:00 +25°C° 0 mm 3 mps 739 mmHg 50%
11:00 +26°C° 0 mm 3 mps 739 mmHg 48%
12:00 +27°C° 0 mm 3 mps 738 mmHg 45%
13:00 +28°C° 0 mm 3 mps 738 mmHg 42%
14:00 +28°C° 0 mm 3 mps 738 mmHg 45%
15:00 +28°C° 0 mm 3 mps 737 mmHg 47%
16:00 +28°C° 0 mm 3 mps 737 mmHg 50%
17:00 +25°C° 0 mm 3 mps 737 mmHg 58%
18:00 +22°C° 0 mm 3 mps 737 mmHg 67%
19:00 +20°C° 0 mm 3 mps 736 mmHg 76%
20:00 +18°C° 0 mm 3 mps 736 mmHg 79%
21:00 +17°C° 0 mm 2 mps 737 mmHg 82%
22:00 +16°C° 0 mm 2 mps 737 mmHg 85%
23:00 +15°C° 0 mm 2 mps 736 mmHg 87%

12 May, Wednesday

Time Temperature Precipitation Wind Pressure Humidity
00:00 +14°C° 0 mm 2 mps 736 mmHg 89%
01:00 +14°C° 0 mm 2 mps 736 mmHg 90%
02:00 +13°C° 0 mm 2 mps 736 mmHg 91%
03:00 +13°C° 0 mm 2 mps 735 mmHg 92%
04:00 +12°C° 0 mm 2 mps 735 mmHg 92%
05:00 +14°C° 0 mm 2 mps 735 mmHg 87%
06:00 +15°C° 0 mm 2 mps 735 mmHg 82%
07:00 +17°C° 0 mm 2 mps 735 mmHg 77%
08:00 +19°C° 0 mm 3 mps 735 mmHg 73%
09:00 +20°C° 0 mm 3 mps 734 mmHg 68%
10:00 +22°C° 0 mm 4 mps 734 mmHg 63%
11:00 +22°C° 0.2 mm 5 mps 734 mmHg 63%
12:00 +22°C° 0.2 mm 6 mps 734 mmHg 63%
13:00 +22°C° 0.2 mm 7 mps 733 mmHg 63%
14:00 +22°C° 0.1 mm 7 mps 733 mmHg 65%
15:00 +21°C° 0.1 mm 8 mps 733 mmHg 68%
16:00 +20°C° 0.1 mm 8 mps 732 mmHg 70%
17:00 +17°C° 0.2 mm 7 mps 733 mmHg 73%
18:00 +16°C° 0.2 mm 7 mps 733 mmHg 76%
19:00 +14°C° 0.2 mm 6 mps 733 mmHg 79%
20:00 +13°C° 0.1 mm 6 mps 733 mmHg 80%
21:00 +12°C° 0.1 mm 5 mps 733 mmHg 81%
22:00 +11°C° 0.1 mm 4 mps 733 mmHg 83%
23:00 +11°C° 0 mm 4 mps 733 mmHg 84%

13 May, Thursday

Time Temperature Precipitation Wind Pressure Humidity
00:00 +10°C° 0 mm 4 mps 732 mmHg 86%
01:00 +9°C° 0 mm 3 mps 732 mmHg 87%
02:00 +9°C° 0 mm 3 mps 732 mmHg 88%
03:00 +9°C° 0 mm 3 mps 732 mmHg 88%
04:00 +8°C° 0 mm 3 mps 732 mmHg 89%
05:00 +8°C° 0 mm 3 mps 732 mmHg 88%
06:00 +9°C° 0 mm 3 mps 732 mmHg 87%
07:00 +9°C° 0 mm 3 mps 732 mmHg 86%
08:00 +9°C° 0.1 mm 2 mps 732 mmHg 87%
09:00 +10°C° 0.1 mm 2 mps 732 mmHg 87%
10:00 +11°C° 0.1 mm 1 mps 732 mmHg 88%
11:00 +11°C° 0.1 mm 1 mps 733 mmHg 89%
12:00 +11°C° 0.1 mm 1 mps 733 mmHg 89%
13:00 +11°C° 0.1 mm 1 mps 733 mmHg 90%
14:00 +11°C° 0.1 mm 1 mps 733 mmHg 90%
15:00 +11°C° 0.1 mm 1 mps 733 mmHg 91%
16:00 +11°C° 0.1 mm 1 mps 733 mmHg 91%
17:00 +11°C° 0 mm 1 mps 734 mmHg 91%
18:00 +11°C° 0 mm 1 mps 734 mmHg 92%
19:00 +11°C° 0 mm 1 mps 734 mmHg 93%
20:00 +11°C° 0 mm 1 mps 734 mmHg 93%
21:00 +10°C° 0 mm 2 mps 734 mmHg 93%
22:00 +10°C° 0 mm 2 mps 734 mmHg 93%
23:00 +10°C° 0 mm 2 mps 735 mmHg 93%

14 May, Friday

Time Temperature Precipitation Wind Pressure Humidity
00:00 +10°C° 0 mm 2 mps 735 mmHg 92%
01:00 +10°C° 0 mm 2 mps 735 mmHg 92%
02:00 +10°C° 0 mm 2 mps 735 mmHg 92%
03:00 +10°C° 0 mm 2 mps 735 mmHg 93%
04:00 +10°C° 0 mm 2 mps 736 mmHg 93%
05:00 +10°C° 0.1 mm 2 mps 736 mmHg 94%
06:00 +10°C° 0.1 mm 2 mps 736 mmHg 94%
07:00 +10°C° 0.1 mm 2 mps 737 mmHg 94%
08:00 +12°C° 0.1 mm 2 mps 737 mmHg 92%
09:00 +11°C° 0.1 mm 3 mps 737 mmHg 90%
10:00 +12°C° 0.1 mm 3 mps 738 mmHg 88%
11:00 +13°C° 0.1 mm 3 mps 738 mmHg 84%
12:00 +13°C° 0.1 mm 3 mps 738 mmHg 80%
13:00 +14°C° 0.1 mm 3 mps 738 mmHg 76%
14:00 +14°C° 0.2 mm 3 mps 739 mmHg 75%
15:00 +14°C° 0.2 mm 3 mps 739 mmHg 75%
16:00 +16°C° 0.2 mm 2 mps 739 mmHg 74%
17:00 +15°C° 0 mm 2 mps 739 mmHg 78%
18:00 +14°C° 0 mm 2 mps 739 mmHg 82%
19:00 +13°C° 0 mm 2 mps 739 mmHg 86%
20:00 +12°C° 0 mm 2 mps 740 mmHg 88%
21:00 +11°C° 0 mm 1 mps 740 mmHg 90%
22:00 +11°C° 0 mm 1 mps 740 mmHg 92%
23:00 +10°C° 0 mm 1 mps 741 mmHg 92%
Show more

We Need Your Consent

Meteoprog and our Service Providers may store and access personal data such as cookies, device identifiers or other similar technologies on your device and process such data to personalise content and ads, as well as provide social media features and to analyse the traffic.

  • Store and/or access information on your device

    Cookies, device identifiers or other information can be stored or accessed on your device for the purposes indicated above.

  • Personalised ads and content, ad and content measurement, audience insights, and products development

    Ads and content can be personalised based on a profile. More data can be added to better personalise ads and content. Ad and content performance can be measured. Insights about the audience who saw the ads and content can be derived. Such data can be used to develop or improve user’s experience, systems and software.

By clicking ‘I Agree’ you will allow the use of indicated cookies, device identifiers, web beacons or other similar technologies. Your settings can be changed in the browser on your device.

For certain purposes, legitimate interests may be relied on, rather than consent. You can read more about this in our Privacy and Cookie Policy.